Gainesville, GA

1:57 AM EST on February 25, 2018 (GMT -0500)
Gilmer Memorial

Weather History for KGVL - June, 2012

Change the Weather History Date:

Thursday, June 21, 2012

  Actual Average Record
Temperature  
Mean Temperature 78 °F 77 °F  
Max Temperature 88 °F 86 °F 101 °F (1964)
Min Temperature 69 °F 68 °F 52 °F (1947)
Cooling Degree Days 14 12  
Month to date cooling degree days 208  
Year to date cooling degree days 383  
Since 1 June cooling degree days 208  
Growing Degree Days 28 (Base 50)    
Moisture  
Dew Point 64 °F    
Average Humidity 63    
Maximum Humidity 93    
Minimum Humidity 43    
Precipitation  
Precipitation 0.00 in 0.15 in 2.79 in (1989)
Month to date precipitation 3.02  
Year to date precipitation 25.94  
Sea Level Pressure  
Sea Level Pressure 30.04 in    
Wind  
Wind Speed 2 mph (South)    
Max Wind Speed 7 mph    
Max Gust Speed -    
Visibility 10 miles    
Events      
T = Trace of Precipitation, MM = Missing Value Source: NWS Daily Summary

Daily Weather History Graph

Daily Weather History Graph

Search for Another Location

Airport or City:

Trip Planner

Search our weather history database for the weather conditions in past years. The results will help you decide how hot, cold, wet, or windy it might be!

Date:

Astronomy

Jun. 21, 2012 Rise Set
Actual Time 6:23 AM EDT 8:50 PM EDT
Civil Twilight 5:54 AM EDT 9:19 PM EDT
Nautical Twilight 5:18 AM EDT 9:56 PM EDT
Astronomical Twilight 4:38 AM EDT 10:35 PM EDT
Moon 8:16 AM EDT (6/21) 10:19 PM EDT (6/21)
Length of Visible Light 15h 25m
Length of Day
14h 26m
Waxing Crescent, 4% of the Moon is Illuminated
Jun 21
Waxing Crescent
Jun 26
First Quarter
Jul 3
Full
Jul 10
Last Quarter
Jul 19
New

Hourly Weather History & Observations

Time (EDT) Temp. Heat Index Dew Point Humidity Pressure Visibility Wind Dir Wind Speed Gust Speed Precip Events Conditions
12:53 AM 73.9 °F - 64.9 °F 73% 30.09 in 10.0 mi Calm Calm - N/A   Clear
1:53 AM 73.0 °F - 64.9 °F 76% 30.09 in 10.0 mi Calm Calm - N/A   Clear
2:53 AM 70.0 °F - 64.9 °F 84% 30.08 in 10.0 mi Calm Calm - N/A   Clear
3:53 AM 71.1 °F - 63.0 °F 75% 30.08 in 10.0 mi Calm Calm - N/A   Clear
4:53 AM 71.1 °F - 63.0 °F 75% 30.08 in 10.0 mi Calm Calm - N/A   Clear
5:53 AM 69.1 °F - 63.0 °F 81% 30.09 in 10.0 mi Calm Calm - N/A   Clear
6:53 AM 69.1 °F - 66.9 °F 93% 30.11 in 7.0 mi Calm Calm - N/A   Scattered Clouds
7:53 AM 72.0 °F - 66.9 °F 84% 30.11 in 8.0 mi Calm Calm - N/A   Mostly Cloudy
8:53 AM 75.0 °F - 66.0 °F 73% 30.11 in 10.0 mi West 4.6 mph - N/A   Clear
9:53 AM 78.1 °F - 63.0 °F 60% 30.10 in 10.0 mi West 4.6 mph - N/A   Clear
10:53 AM 81.0 °F 82.5 °F 64.0 °F 56% 30.08 in 10.0 mi NW 4.6 mph - N/A   Clear
11:53 AM 82.0 °F 83.4 °F 64.0 °F 54% 30.08 in 10.0 mi SSW 3.5 mph - N/A   Scattered Clouds
12:53 PM 84.9 °F 86.6 °F 64.9 °F 51% 30.06 in 10.0 mi Variable 4.6 mph - N/A   Mostly Cloudy
1:53 PM 86.0 °F 87.6 °F 64.9 °F 49% 30.04 in 10.0 mi South 6.9 mph - N/A   Scattered Clouds
2:53 PM 86.0 °F 87.3 °F 64.0 °F 48% 30.02 in 10.0 mi ESE 6.9 mph - N/A   Partly Cloudy
3:53 PM 86.0 °F 87.3 °F 64.0 °F 48% 30.00 in 10.0 mi ESE 4.6 mph - N/A   Scattered Clouds
4:53 PM 88.0 °F 88.7 °F 63.0 °F 43% 29.96 in 10.0 mi Variable 5.8 mph - N/A   Clear
5:53 PM 87.1 °F 87.8 °F 63.0 °F 44% 29.96 in 10.0 mi ESE 6.9 mph - N/A   Clear
6:53 PM 86.0 °F 87.3 °F 64.0 °F 48% 29.94 in 10.0 mi ESE 5.8 mph - N/A   Clear
7:53 PM 82.9 °F 84.6 °F 64.9 °F 54% 29.95 in 10.0 mi SSE 5.8 mph - N/A   Clear
8:53 PM 79.0 °F - 64.9 °F 62% 29.97 in 10.0 mi SSE 5.8 mph - N/A   Clear
9:53 PM 77.0 °F - 64.0 °F 64% 29.97 in 10.0 mi South 3.5 mph - N/A   Clear
10:53 PM 75.9 °F - 63.0 °F 64% 29.99 in 10.0 mi South 3.5 mph - N/A   Clear
11:53 PM 75.9 °F - 62.1 °F 62% 29.99 in 10.0 mi South 4.6 mph - N/A   Clear